THY2RC LROP-LTFM

Flight info

Callsign THY2RC
Flight time 0h 54m
Altitude 37000
Route IDARU DCT NONQE DCT MAXOV DCT MATEL L620 RIXEN
Aircraft B38M/M-SDE1FGHILORVWXY/HB1

Departure

Time 2026-05-03 20:36
Airport Bucharest Henri Coandă International Airport (LROP)

Arrival

Time 2026-05-03 21:30
Airport İstanbul Airport (LTFM)
Time Latitude Longitude Altitude Speed Heading
2026-05-03 20:15 44.56970 26.09754 310 ft 0 kts 174°
2026-05-03 20:18 44.56976 26.09753 310 ft 2 kts 174°
2026-05-03 20:19 44.56985 26.09752 311 ft 2 kts 174°
2026-05-03 20:19 44.56999 26.09745 311 ft 2 kts 139°
2026-05-03 20:19 44.57008 26.09728 311 ft 2 kts 110°
2026-05-03 20:19 44.57011 26.09711 311 ft 0 kts 87°
2026-05-03 20:20 44.57010 26.09702 311 ft 1 kts 83°
2026-05-03 20:20 44.57010 26.09700 311 ft 0 kts 83°
2026-05-03 20:27 44.57010 26.09702 311 ft 1 kts 83°
2026-05-03 20:27 44.57012 26.09730 311 ft 4 kts 84°
2026-05-03 20:27 44.57016 26.09792 311 ft 8 kts 86°
2026-05-03 20:28 44.57024 26.09877 310 ft 9 kts 67°
2026-05-03 20:28 44.57063 26.09911 309 ft 7 kts
2026-05-03 20:28 44.57110 26.09899 310 ft 6 kts 342°
2026-05-03 20:28 44.57150 26.09890 311 ft 5 kts 353°
2026-05-03 20:29 44.57187 26.09885 311 ft 5 kts 355°
2026-05-03 20:29 44.57227 26.09880 312 ft 5 kts 356°
2026-05-03 20:29 44.57267 26.09875 313 ft 5 kts 353°
2026-05-03 20:29 44.57307 26.09869 314 ft 5 kts 354°
2026-05-03 20:30 44.57349 26.09860 314 ft 6 kts 351°
2026-05-03 20:30 44.57406 26.09848 314 ft 8 kts 352°
2026-05-03 20:30 44.57468 26.09838 314 ft 8 kts 354°
2026-05-03 20:30 44.57529 26.09830 315 ft 7 kts 355°
2026-05-03 20:31 44.57551 26.09822 315 ft 3 kts 334°
2026-05-03 20:31 44.57581 26.09784 316 ft 8 kts 305°
2026-05-03 20:31 44.57586 26.09674 316 ft 15 kts 265°
2026-05-03 20:31 44.57575 26.09513 314 ft 16 kts 266°
2026-05-03 20:32 44.57561 26.09361 314 ft 15 kts 262°
2026-05-03 20:32 44.57550 26.09220 314 ft 14 kts 265°
2026-05-03 20:32 44.57544 26.09088 314 ft 13 kts 264°
2026-05-03 20:32 44.57536 26.08963 314 ft 12 kts 265°
2026-05-03 20:33 44.57525 26.08844 314 ft 12 kts 262°
2026-05-03 20:33 44.57515 26.08727 314 ft 11 kts 263°
2026-05-03 20:33 44.57506 26.08614 314 ft 11 kts 264°
2026-05-03 20:33 44.57502 26.08508 314 ft 10 kts 283°
2026-05-03 20:34 44.57545 26.08452 314 ft 7 kts 346°
2026-05-03 20:34 44.57565 26.08449 314 ft 0 kts 357°
2026-05-03 20:34 44.57578 26.08448 314 ft 5 kts 358°
2026-05-03 20:35 44.57633 26.08456 314 ft 10 kts 22°
2026-05-03 20:35 44.57673 26.08557 314 ft 11 kts 84°
2026-05-03 20:35 44.57679 26.08648 314 ft 20 kts 85°
2026-05-03 20:35 44.57728 26.09281 314 ft 109 kts 83°
2026-05-03 20:36 44.57836 26.10692 320 ft 179 kts 83°
2026-05-03 20:36 44.57928 26.12527 996 ft 195 kts 88°
2026-05-03 20:36 44.57907 26.14520 1819 ft 214 kts 90°
2026-05-03 20:36 44.58048 26.16587 2534 ft 219 kts 76°
2026-05-03 20:37 44.58373 26.18713 3080 ft 229 kts 79°
2026-05-03 20:37 44.58584 26.20963 3649 ft 239 kts 82°
2026-05-03 20:37 44.58768 26.23268 4369 ft 242 kts 81°
2026-05-03 20:37 44.58950 26.25607 5167 ft 241 kts 81°
2026-05-03 20:38 44.59126 26.27908 5920 ft 242 kts 81°
2026-05-03 20:38 44.59303 26.30262 6625 ft 245 kts 81°
2026-05-03 20:38 44.59482 26.32660 7296 ft 253 kts 80°
2026-05-03 20:38 44.59669 26.35155 7847 ft 264 kts 80°
2026-05-03 20:39 44.59857 26.37710 8603 ft 267 kts 79°
2026-05-03 20:39 44.59769 26.40323 9273 ft 281 kts 102°
2026-05-03 20:39 44.58730 26.42700 10006 ft 297 kts 131°
2026-05-03 20:39 44.57175 26.44568 10744 ft 298 kts 131°
2026-05-03 20:40 44.55731 26.46752 11034 ft 312 kts 124°
2026-05-03 20:40 44.54292 26.49101 11405 ft 326 kts 127°
2026-05-03 20:40 44.52736 26.51455 12004 ft 332 kts 128°
2026-05-03 20:40 44.51160 26.53787 12685 ft 333 kts 128°
2026-05-03 20:41 44.49575 26.56142 13391 ft 334 kts 128°
2026-05-03 20:41 44.47969 26.58523 14050 ft 337 kts 128°
2026-05-03 20:41 44.46348 26.60912 14712 ft 340 kts 128°
2026-05-03 20:41 44.44727 26.63295 15406 ft 342 kts 128°
2026-05-03 20:42 44.43095 26.65694 16058 ft 345 kts 129°
2026-05-03 20:42 44.41439 26.68130 16680 ft 348 kts 129°
2026-05-03 20:42 44.39772 26.70579 17315 ft 350 kts 129°
2026-05-03 20:42 44.38086 26.73049 17915 ft 353 kts 129°
2026-05-03 20:43 44.36380 26.75545 18480 ft 356 kts 129°
2026-05-03 20:43 44.34676 26.78037 19081 ft 358 kts 129°
2026-05-03 20:43 44.32944 26.80570 19646 ft 361 kts 129°
2026-05-03 20:43 44.31204 26.83110 20175 ft 364 kts 129°
2026-05-03 20:44 44.29462 26.85649 20698 ft 367 kts 129°
2026-05-03 20:44 44.27707 26.88207 21259 ft 368 kts 129°
2026-05-03 20:44 44.25919 26.90808 21765 ft 371 kts 129°
2026-05-03 20:44 44.24123 26.93413 22270 ft 374 kts 130°
2026-05-03 20:45 44.22105 26.95729 22754 ft 382 kts 142°
2026-05-03 20:45 44.19847 26.97665 23231 ft 386 kts 144°
2026-05-03 20:45 44.17545 26.99609 23735 ft 386 kts 143°
2026-05-03 20:45 44.15279 27.01600 24168 ft 388 kts 143°
2026-05-03 20:46 44.13007 27.03611 24536 ft 392 kts 143°
2026-05-03 20:46 44.10668 27.05666 24881 ft 394 kts 143°
2026-05-03 20:46 44.08367 27.07679 25262 ft 396 kts 143°
2026-05-03 20:46 44.06045 27.09712 25619 ft 397 kts 144°
2026-05-03 20:47 44.03702 27.11765 25951 ft 399 kts 144°
2026-05-03 20:47 44.01334 27.13839 26254 ft 402 kts 144°
2026-05-03 20:47 43.98974 27.15903 26618 ft 402 kts 144°
2026-05-03 20:47 43.96594 27.17981 26940 ft 404 kts 144°
2026-05-03 20:48 43.94233 27.20040 27239 ft 405 kts 144°
2026-05-03 20:48 43.91846 27.22122 27527 ft 407 kts 144°
2026-05-03 20:48 43.89428 27.24230 27847 ft 408 kts 145°
2026-05-03 20:48 43.87013 27.26332 28094 ft 411 kts 144°
2026-05-03 20:49 43.84605 27.28426 28347 ft 413 kts 145°
2026-05-03 20:49 43.82172 27.30540 28685 ft 412 kts 145°
2026-05-03 20:49 43.79750 27.32644 28916 ft 414 kts 145°
2026-05-03 20:49 43.77314 27.34758 29180 ft 415 kts 145°
2026-05-03 20:50 43.74886 27.36861 29414 ft 416 kts 146°
2026-05-03 20:50 43.72418 27.38997 29690 ft 417 kts 146°
2026-05-03 20:50 43.69966 27.41116 29955 ft 417 kts 146°
2026-05-03 20:50 43.67505 27.43241 30205 ft 418 kts 146°
2026-05-03 20:51 43.65062 27.45350 30403 ft 420 kts 146°
2026-05-03 20:51 43.62588 27.47483 30630 ft 421 kts 146°
2026-05-03 20:51 43.60107 27.49620 30837 ft 422 kts 146°
2026-05-03 20:51 43.57624 27.51757 31042 ft 423 kts 146°
2026-05-03 20:52 43.55110 27.53917 31200 ft 425 kts 146°
2026-05-03 20:52 43.52613 27.56061 31403 ft 426 kts 146°
2026-05-03 20:52 43.50113 27.58207 31621 ft 426 kts 147°
2026-05-03 20:52 43.47582 27.60375 31792 ft 428 kts 146°
2026-05-03 20:53 43.45065 27.62530 31941 ft 430 kts 147°
2026-05-03 20:53 43.42508 27.64717 32183 ft 430 kts 147°
2026-05-03 20:53 43.39975 27.66881 32295 ft 432 kts 147°
2026-05-03 20:53 43.37438 27.69047 32473 ft 432 kts 147°
2026-05-03 20:54 43.35727 27.70505 32552 ft 434 kts 147°
2026-05-03 20:54 43.29741 27.75604 32902 ft 436 kts 147°
2026-05-03 20:54 43.27177 27.77784 33030 ft 437 kts 147°
2026-05-03 20:55 43.24572 27.79997 33164 ft 438 kts 147°
2026-05-03 20:55 43.21981 27.82194 33313 ft 439 kts 147°
2026-05-03 20:55 43.19395 27.84387 33446 ft 440 kts 147°
2026-05-03 20:55 43.16801 27.86584 33579 ft 440 kts 147°
2026-05-03 20:56 43.14199 27.88784 33747 ft 440 kts 147°
2026-05-03 20:56 43.11599 27.90982 33960 ft 439 kts 147°
2026-05-03 20:56 43.08991 27.93183 34162 ft 438 kts 147°
2026-05-03 20:56 43.06420 27.95351 34335 ft 438 kts 147°
2026-05-03 20:57 43.03819 27.97543 34461 ft 440 kts 148°
2026-05-03 20:57 43.01211 27.99737 34644 ft 439 kts 147°
2026-05-03 20:57 42.98610 28.01923 34831 ft 439 kts 148°
2026-05-03 20:57 42.96017 28.04102 34957 ft 440 kts 147°
2026-05-03 20:58 42.93435 28.06269 35087 ft 441 kts 147°
2026-05-03 20:58 42.90802 28.08476 35269 ft 440 kts 147°
2026-05-03 20:58 42.88211 28.10645 35448 ft 439 kts 147°
2026-05-03 20:58 42.85598 28.12831 35597 ft 440 kts 147°
2026-05-03 20:59 42.83003 28.15001 35718 ft 440 kts 147°
2026-05-03 20:59 42.80384 28.17187 35878 ft 440 kts 148°
2026-05-03 20:59 42.77779 28.19360 35989 ft 441 kts 148°
2026-05-03 20:59 42.75176 28.21529 36112 ft 442 kts 148°
2026-05-03 21:00 42.72554 28.23712 36272 ft 441 kts 148°
2026-05-03 21:00 42.71674 28.24443 36316 ft 441 kts 148°
2026-05-03 21:00 42.64667 28.30264 36401 ft 446 kts 148°
2026-05-03 21:01 42.59417 28.34613 36388 ft 441 kts 148°
2026-05-03 21:01 42.54185 28.38938 36391 ft 440 kts 148°
2026-05-03 21:02 42.48972 28.43242 36377 ft 442 kts 148°
2026-05-03 21:02 42.43707 28.47579 35788 ft 445 kts 148°
2026-05-03 21:03 42.41081 28.49739 35345 ft 439 kts 148°
2026-05-03 21:03 42.38489 28.51869 34808 ft 436 kts 148°
2026-05-03 21:03 42.35926 28.53973 34231 ft 434 kts 148°
2026-05-03 21:03 42.33366 28.56073 33671 ft 432 kts 148°
2026-05-03 21:04 42.30801 28.58175 33178 ft 427 kts 148°
2026-05-03 21:04 42.28268 28.60249 32529 ft 424 kts 149°
2026-05-03 21:04 42.25776 28.62287 31839 ft 421 kts 149°
2026-05-03 21:04 42.23279 28.64328 31194 ft 417 kts 150°
2026-05-03 21:05 42.20826 28.66332 30482 ft 413 kts 151°
2026-05-03 21:05 42.18369 28.68335 29477 ft 415 kts 151°
2026-05-03 21:05 42.15915 28.70330 28468 ft 416 kts 151°
2026-05-03 21:05 42.13431 28.72349 27745 ft 410 kts 151°
2026-05-03 21:06 42.11018 28.74314 26855 ft 408 kts 151°
2026-05-03 21:06 42.08625 28.76261 26332 ft 398 kts 151°
2026-05-03 21:06 42.06211 28.77884 25950 ft 383 kts 164°
2026-05-03 21:06 42.03631 28.78344 25455 ft 374 kts 183°
2026-05-03 21:07 42.01069 28.77932 24960 ft 367 kts 187°
2026-05-03 21:07 41.98523 28.77590 24268 ft 366 kts 183°
2026-05-03 21:07 41.95978 28.77499 23476 ft 367 kts 180°
2026-05-03 21:07 41.93455 28.77490 23038 ft 359 kts 181°
2026-05-03 21:08 41.91033 28.77045 22858 ft 351 kts 195°
2026-05-03 21:08 41.88731 28.75989 22344 ft 348 kts 199°
2026-05-03 21:08 41.86443 28.74902 21802 ft 351 kts 197°
2026-05-03 21:08 41.84083 28.73893 21270 ft 368 kts 196°
2026-05-03 21:09 41.81602 28.72858 20685 ft 376 kts 196°
2026-05-03 21:09 41.79133 28.71822 20118 ft 371 kts 196°
2026-05-03 21:09 41.76672 28.70792 19550 ft 366 kts 196°
2026-05-03 21:09 41.74260 28.69790 18995 ft 363 kts 195°
2026-05-03 21:10 41.71867 28.68802 18449 ft 359 kts 196°
2026-05-03 21:10 41.69483 28.67818 17905 ft 356 kts 195°
2026-05-03 21:10 41.67135 28.66850 17364 ft 353 kts 195°
2026-05-03 21:10 41.64820 28.65900 16821 ft 351 kts 195°
2026-05-03 21:11 41.62486 28.64944 16275 ft 349 kts 195°
2026-05-03 21:11 41.60166 28.63996 15730 ft 346 kts 195°
2026-05-03 21:11 41.57894 28.63069 15202 ft 344 kts 195°
2026-05-03 21:11 41.55598 28.62278 14677 ft 341 kts 188°
2026-05-03 21:12 41.53246 28.61895 14137 ft 336 kts 179°
2026-05-03 21:12 41.50948 28.61968 13765 ft 327 kts 172°
2026-05-03 21:12 41.48685 28.62268 13547 ft 336 kts 171°
2026-05-03 21:12 41.46293 28.62588 13287 ft 349 kts 171°
2026-05-03 21:13 41.43879 28.62897 13018 ft 347 kts 171°
2026-05-03 21:13 41.41476 28.63201 12764 ft 346 kts 171°
2026-05-03 21:13 41.39099 28.63498 12504 ft 345 kts 171°
2026-05-03 21:13 41.36710 28.63793 12282 ft 338 kts 171°
2026-05-03 21:14 41.34412 28.64065 12142 ft 324 kts 171°
2026-05-03 21:14 41.32208 28.64312 11997 ft 311 kts 171°
2026-05-03 21:14 41.30087 28.64540 11603 ft 308 kts 171°
2026-05-03 21:14 41.27947 28.64760 11169 ft 307 kts 171°
2026-05-03 21:15 41.25828 28.64967 10709 ft 306 kts 171°
2026-05-03 21:15 41.23710 28.65169 10268 ft 305 kts 171°
2026-05-03 21:15 41.21572 28.65361 9822 ft 305 kts 171°
2026-05-03 21:15 41.19467 28.65550 9393 ft 303 kts 171°
2026-05-03 21:16 41.17388 28.65737 8950 ft 303 kts 171°
2026-05-03 21:16 41.15283 28.65919 8505 ft 303 kts 171°
2026-05-03 21:16 41.13188 28.66097 8053 ft 303 kts 171°
2026-05-03 21:16 41.11089 28.66280 7682 ft 299 kts 171°
2026-05-03 21:17 41.09032 28.66450 7529 ft 289 kts 171°
2026-05-03 21:17 41.07711 28.66554 7394 ft 284 kts 171°
2026-05-03 21:17 41.05088 28.66753 6944 ft 282 kts 171°
2026-05-03 21:17 41.03148 28.66897 6594 ft 282 kts 171°
2026-05-03 21:18 41.01191 28.67044 6256 ft 280 kts 171°
2026-05-03 21:18 40.99229 28.67187 5886 ft 281 kts 171°
2026-05-03 21:18 40.97313 28.67315 5707 ft 278 kts 171°
2026-05-03 21:18 40.95390 28.67651 5339 ft 278 kts 156°
2026-05-03 21:19 40.93656 28.68692 5200 ft 264 kts 139°
2026-05-03 21:19 40.92231 28.70093 5058 ft 250 kts 128°
2026-05-03 21:19 40.91100 28.71732 4808 ft 235 kts 116°
2026-05-03 21:19 40.90297 28.73521 4558 ft 220 kts 104°
2026-05-03 21:20 40.89833 28.75398 4312 ft 206 kts 91°
2026-05-03 21:20 40.89721 28.77212 4069 ft 192 kts 78°
2026-05-03 21:20 40.89939 28.78884 3825 ft 181 kts 65°
2026-05-03 21:20 40.90594 28.80225 3573 ft 169 kts 33°
2026-05-03 21:21 40.91716 28.80506 3338 ft 177 kts 353°
2026-05-03 21:21 40.92858 28.79758 3064 ft 185 kts 340°
2026-05-03 21:21 40.93960 28.78894 2663 ft 189 kts 341°
2026-05-03 21:21 40.95107 28.78027 2267 ft 190 kts 341°
2026-05-03 21:22 40.96240 28.77177 2037 ft 181 kts 341°
2026-05-03 21:22 40.97277 28.76383 2006 ft 165 kts 341°
2026-05-03 21:22 40.98243 28.75620 2013 ft 161 kts 341°
2026-05-03 21:22 40.99219 28.74916 2014 ft 153 kts 352°
2026-05-03 21:23 41.00243 28.74710 2019 ft 147 kts
2026-05-03 21:23 41.01259 28.74599 2019 ft 147 kts
2026-05-03 21:23 41.02314 28.74473 2016 ft 151 kts
2026-05-03 21:23 41.03341 28.74352 2018 ft 148 kts
2026-05-03 21:24 41.04383 28.74237 2014 ft 150 kts
2026-05-03 21:24 41.05424 28.74128 2024 ft 151 kts
2026-05-03 21:24 41.06456 28.74015 2019 ft 149 kts
2026-05-03 21:24 41.07519 28.73911 2023 ft 152 kts
2026-05-03 21:25 41.08557 28.73816 2010 ft 148 kts
2026-05-03 21:25 41.09592 28.73721 2010 ft 148 kts
2026-05-03 21:25 41.10644 28.73629 2018 ft 156 kts
2026-05-03 21:25 41.11689 28.73537 2029 ft 148 kts
2026-05-03 21:26 41.12751 28.73464 2024 ft 153 kts
2026-05-03 21:26 41.13791 28.73260 2036 ft 152 kts
2026-05-03 21:26 41.14850 28.73102 2017 ft 149 kts
2026-05-03 21:26 41.15908 28.73005 2015 ft 154 kts
2026-05-03 21:27 41.16952 28.72970 2013 ft 147 kts
2026-05-03 21:27 41.17987 28.72944 1981 ft 150 kts
2026-05-03 21:27 41.19014 28.72916 1787 ft 139 kts
2026-05-03 21:27 41.19913 28.72899 1616 ft 118 kts
2026-05-03 21:28 41.20713 28.72884 1455 ft 113 kts
2026-05-03 21:28 41.21491 28.72870 1313 ft 108 kts
2026-05-03 21:28 41.22269 28.72853 1183 ft 113 kts
2026-05-03 21:28 41.23051 28.72840 999 ft 112 kts
2026-05-03 21:29 41.23838 28.72824 850 ft 115 kts
2026-05-03 21:29 41.24661 28.72808 708 ft 122 kts
2026-05-03 21:29 41.25545 28.72797 554 ft 123 kts
2026-05-03 21:29 41.26362 28.72778 363 ft 108 kts
2026-05-03 21:30 41.27072 28.72807 334 ft 82 kts
2026-05-03 21:30 41.27499 28.72784 334 ft 46 kts 355°
2026-05-03 21:30 41.27758 28.72782 334 ft 26 kts 351°
2026-05-03 21:30 41.27915 28.72770 334 ft 18 kts
2026-05-03 21:31 41.28006 28.72812 334 ft 11 kts 22°
2026-05-03 21:31 41.28082 28.72859 334 ft 11 kts 30°
2026-05-03 21:31 41.28107 28.72934 334 ft 8 kts 128°
2026-05-03 21:31 41.28036 28.72960 334 ft 13 kts 174°
2026-05-03 21:32 41.27920 28.72970 334 ft 16 kts 166°
2026-05-03 21:32 41.27823 28.73024 334 ft 12 kts 146°
2026-05-03 21:32 41.27756 28.73077 334 ft 9 kts 154°
2026-05-03 21:32 41.27683 28.73086 334 ft 12 kts 180°
2026-05-03 21:33 41.27589 28.73087 334 ft 14 kts 177°
2026-05-03 21:33 41.27480 28.73094 334 ft 16 kts 177°
2026-05-03 21:33 41.27389 28.73128 334 ft 8 kts 104°
2026-05-03 21:33 41.27385 28.73190 334 ft 8 kts 95°
2026-05-03 21:34 41.27385 28.73315 334 ft 19 kts 89°
2026-05-03 21:34 41.27410 28.73475 334 ft 12 kts 34°
2026-05-03 21:34 41.27475 28.73487 334 ft 5 kts
2026-05-03 21:34 41.27483 28.73487 334 ft 0 kts
2026-05-03 21:37 41.27483 28.73486 334 ft 0 kts